Simultaneous Nadir Overpasses (SNOs) Predictions

Prediction of SNOs between NOAA-20 and METOP-B Satellite Orbit:

Table of predicted SNOs for the next 14.0 days since TLE Epoch: 9/4/2020
Index Date (NOAA-20) Time (NOAA-20) Lat,Lon (NOAA-20) SZA (NOAA-20 ) Date (METOP-B) Time (METOP-B) Lat,Lon (METOP-B) SZA (METOP-B ) Distance(km) Time Diff (sec)
1 09/17/2020 13:31:33 73.46, -32.66 71.62 09/17/2020 13:32:40 73.43, -29.98 71.48 84.78 67
2 09/17/2020 14:22:16 -73.40, 134.79 108.44 09/17/2020 14:23:24 -73.33, 137.13 108.60 74.83 68
3 09/17/2020 15:12:57 73.17, -57.38 71.33 09/17/2020 15:14:07 73.15, -55.93 71.25 46.53 70
4 09/17/2020 16:03:40 -73.11, 110.06 108.73 09/17/2020 16:04:51 -73.06, 111.19 108.83 36.87 71
5 09/17/2020 16:54:21 72.87, -82.12 71.04 09/17/2020 16:55:35 72.83, -81.97 70.97 7.17 74
6 09/17/2020 17:45:04 -72.82, 85.32 109.02 09/17/2020 17:46:17 -72.83, 85.37 109.01 2.45 73
7 09/17/2020 18:35:49 72.78,-107.29 70.96 09/17/2020 18:36:57 72.80,-107.36 70.98 3.23 68
8 09/17/2020 19:26:34 -72.83, 59.93 108.98 09/17/2020 19:27:39 -72.81, 59.98 109.01 2.58 65
9 09/17/2020 20:17:19 72.79,-132.69 71.00 09/17/2020 20:18:19 72.78,-132.75 70.98 2.30 60
10 09/17/2020 21:08:03 -72.78, 34.64 109.00 09/17/2020 21:09:01 -72.79, 34.59 109.00 1.60 58
11 09/17/2020 21:58:49 72.80,-158.08 71.03 09/17/2020 21:59:40 72.81,-158.03 71.03 1.85 51
12 09/17/2020 22:49:33 -72.79, 9.25 108.96 09/17/2020 22:50:22 -72.81, 9.31 108.95 3.19 49
13 09/17/2020 23:40:18 72.80, 176.53 71.07 09/17/2020 23:41:01 72.78, 176.58 71.04 2.86 43
14 09/18/2020 00:31:02 -72.80, -16.14 108.93 09/18/2020 00:31:43 -72.79, -16.08 108.95 2.23 41
15 09/18/2020 01:21:47 72.76, 151.25 71.05 09/18/2020 01:22:23 72.76, 151.19 71.04 1.90 36
16 09/18/2020 02:12:31 -72.76, -41.42 108.95 09/18/2020 02:13:05 -72.77, -41.47 108.94 1.83 34
17 09/18/2020 03:03:17 72.77, 125.86 71.08 09/18/2020 03:03:44 72.79, 125.91 71.10 2.49 27
18 09/18/2020 03:54:01 -72.76, -66.82 108.91 09/18/2020 03:54:27 -72.74, -66.85 108.94 2.62 26
19 09/18/2020 04:44:47 72.78, 100.47 71.12 09/18/2020 04:45:06 72.76, 100.52 71.10 2.36 19
20 09/18/2020 05:35:31 -72.77, -92.21 108.88 09/18/2020 05:35:48 -72.77, -92.14 108.88 2.20 17
21 09/18/2020 06:26:16 72.73, 75.18 71.10 09/18/2020 06:26:28 72.74, 75.13 71.11 1.79 12
22 09/18/2020 07:17:00 -72.73,-117.49 108.90 09/18/2020 07:17:10 -72.75,-117.53 108.88 2.36 10
23 09/18/2020 08:07:46 72.74, 49.79 71.14 09/18/2020 08:07:49 72.76, 49.85 71.16 3.20 3
24 09/18/2020 08:58:30 -72.74,-142.88 108.86 09/18/2020 08:58:32 -72.72,-142.92 108.87 1.82 2
25 09/18/2020 09:49:16 72.75, 24.40 71.17 09/18/2020 09:49:11 72.74, 24.46 71.16 2.06 5
26 09/18/2020 10:40:00 -72.74,-168.27 108.83 09/18/2020 10:39:53 -72.75,-168.20 108.82 2.50 7
27 09/18/2020 11:30:45 72.71, -0.88 71.15 09/18/2020 11:30:33 72.72, -0.93 71.17 1.99 12
28 09/18/2020 12:21:29 -72.70, 166.44 108.84 09/18/2020 12:21:15 -72.73, 166.41 108.82 3.05 14
29 09/18/2020 13:12:15 72.71, -26.27 71.19 09/18/2020 13:11:55 72.69, -26.32 71.17 2.70 20
30 09/18/2020 14:02:59 -72.71, 141.05 108.81 09/18/2020 14:02:37 -72.70, 141.02 108.81 1.10 22
31 09/18/2020 14:53:45 72.72, -51.66 71.22 09/18/2020 14:53:16 72.72, -51.60 71.22 2.04 29
32 09/18/2020 15:44:29 -72.72, 115.66 108.77 09/18/2020 15:43:58 -72.73, 115.74 108.76 3.03 31
33 09/18/2020 16:35:14 72.68, -76.95 71.20 09/18/2020 16:34:38 72.70, -76.99 71.23 2.44 36
34 09/18/2020 17:25:59 -72.72, 90.27 108.74 09/18/2020 17:25:20 -72.71, 90.35 108.75 3.27 39
35 09/18/2020 18:16:44 72.69,-102.34 71.24 09/18/2020 18:16:00 72.67,-102.38 71.23 1.97 44
36 09/18/2020 19:07:28 -72.68, 64.99 108.76 09/18/2020 19:06:42 -72.68, 64.96 108.75 0.76 46
37 09/18/2020 19:58:14 72.69,-127.73 71.28 09/18/2020 19:57:21 72.70,-127.66 71.29 2.32 53
38 09/18/2020 20:48:58 -72.69, 39.60 108.72 09/18/2020 20:48:04 -72.66, 39.58 108.74 3.30 54
